Terminal Aerodrome Forecast
Issued by NWS Boise, ID

Home | Current Version | Previous Version | Text Only | Print | Product List | Glossary On
Versions: 1 2 3 4 5 6 7 8 9 10 11 12 13 14 15 16 17 18 19
000
FTUS45 KBOI 160816 AAB
TAFBOI
TAF AMD
KBOI 160816Z 1608/1706 30008KT 6SM BR OVC004
     FM161800 31012G22KT P6SM BKN035
     FM170300 31006KT 4SM BR SCT003=

USA.gov is the U.S. government's official web portal to all federal, state and local government web resources and services.